Location: Unspecified
(58.9933°N, 5.6375°E)
Time: 06:13:44
(UTC+02:00)

Cosmos 1674 - Visible Passes

Search period start: 25 October 2014 00:00
Search period end: 03 November 2014 23:00
Orbit: 514 x 540 km, 82.5° (Epoch: 24 October)

Date Brightness Start Highest point End Pass type
(mag) Time Alt. Az. Time Alt. Az. Time Alt. Az.
25 Oct 3.9 06:29:49 10° SSE 06:33:38 46° E 06:37:28 10° NNE visible
26 Oct 4.0 05:18:29 10° SSE 05:22:15 43° E 05:26:03 10° NNE visible
26 Oct 3.6 06:54:50 10° SW 06:58:22 30° WNW 07:01:55 10° N visible
27 Oct 4.2 05:07:08 10° SSE 05:10:51 40° E 05:14:36 10° NNE visible
27 Oct 3.5 06:43:21 10° SW 06:46:55 31° WNW 06:50:32 10° N visible
28 Oct 4.3 04:55:46 10° SSE 04:59:27 38° E 05:03:09 10° NNE visible
28 Oct 3.4 06:31:50 10° SW 06:35:28 33° WNW 06:39:08 10° N visible
29 Oct 4.4 04:44:24 10° SSE 04:48:01 35° E 04:51:40 10° NNE visible
29 Oct 3.4 06:20:19 10° SW 06:24:00 36° WNW 06:27:42 10° N visible
30 Oct 4.5 04:33:01 10° SSE 04:36:35 33° E 04:40:10 10° NNE visible
30 Oct 3.3 06:08:47 10° SW 06:12:31 38° WNW 06:16:16 10° N visible
30 Oct 6.2 17:33:49 10° WNW 17:34:46 11° WNW 17:35:43 10° W visible
31 Oct 4.6 04:23:03 19° SE 04:25:08 31° E 04:28:39 10° NNE visible
31 Oct 3.2 05:58:22 18° SW 06:01:01 40° WNW 06:04:48 10° N visible
01 Nov 4.7 04:12:47 26° ESE 04:13:40 29° E 04:17:07 10° NNE visible
01 Nov 3.1 05:48:05 30° WSW 05:49:30 43° WNW 05:53:19 10° N visible
02 Nov 4.8 04:02:15 27° E 04:02:15 27° E 04:05:33 10° NNE visible
02 Nov 3.0 05:37:33 44° W 05:37:58 46° WNW 05:41:49 10° N visible
03 Nov 5.1 03:51:33 23° ENE 03:51:33 23° ENE 03:53:58 10° NNE visible
03 Nov 3.1 05:26:50 47° NW 05:26:50 47° NW 05:30:18 10° N visible
03 Nov 4.8 07:02:16 10° WNW 07:03:23 11° NW 07:04:29 10° NNW visible
